SMOG-1 (47964 NORAD) Tracking and Keplerian Element Data

This shows tracking and keplerian element data for the satellite.

Feedback or suggestion? Click here.




ElementValue
Catalog47964
NameSMOG-1
Epoch Orbit1266
Epoch Day173.67772686
Epoch Year2021
RAAN75.9047
Inclination97.5579
Eccentricity0.0018349
Argument of Perigee289.5357
Mean Anonmoly70.3889
Mean Motion15.07082023
Decay Rate1.354E-05
L11 47964U 21022AJ 21173.67772686 .00001354 00000-0 94116-4 0 9998
L22 47964 97.5579 75.9047 0018349 289.5357 70.3889 15.07082023 12668

Live tracking and technical data element details for SMOG-1 (NORAD 47964). SMOG-1 can be tracked NOW for your location showing map with azimuth and elevation plus other details from your city location.

Track the satellite on the map from your city or location and see movement details for azimuth, elevation, latitude, longitude, range, height, and movement on the map or in text.







IsCatalogInMostPopularTable: catalog: 47964, numindb: 42
Update: records affected: 1



GetName: 47964 SMOG-1

Hit Count: updated at: Thu, 24 Jun 2021 02:54:36 GMT